[[{"header":{"parameterUnit":"m.s-1","parameterCategory":1,"la1":30.2991,"la2":30.254,"lo1":-89.0895,"lo2":-89.0444,"dy":0.0017,"dx":0.0017,"nx":28,"ny":28,"refTime":"2026-02-08T03:00:00:Z","depth":0,"parameterNumber":2,"parameterNumberName":"U-component_of_WINDS"},"data":[0,0,0,0,0,0,0,0,0,0,0,0,0,0,0,0,0,0,0,0,0,0,0,0,0,0,0,0,0,0,0,0,0,0,0,0,0,0,0,0,0,0,0,0,0,0,0,0,0,0,0,0,0,0,0,0,0,0,0.9503,0.9504,0,0.9577,0.9578,0.9579,0.9521,0.9518,0.9516,0.9514,0.959,0.9594,0.9598,0,0,0,0,0,0,0,0,0,0,0,0,0,0.9314,0.9317,0.9503,0.9504,0.9505,0.9577,0.9578,0.9579,0.9521,0.9518,0.9515,0.9512,0.9588,0.9594,0.9599,0,0,0,0,0,0,0,0,0,0,0,0,0,0.9393,0.9319,0.9503,0.9485,0.9484,0.9577,0.9578,0.9579,0.9522,0.9518,0.9515,0.9511,0.9587,0.9593,0.96,0.9714,0,0,0.9619,0.9622,0,0,0,0,0,0,0,0,0.9388,0.94,0.9487,0.9486,0.9486,0.9536,0.9539,0.9624,0.9523,0.9508,0.9514,0.9509,0.9575,0.9582,0.9604,0.9718,0.9721,0.962,0.9624,0.9627,0.9629,0,0,0,0,0,0,0,0.9383,0.9396,0.9532,0.9488,0.9487,0.9474,0.9481,0.9555,0.9561,0.9509,0.9505,0.9514,0.9574,0.9598,0.9606,0.9722,0.962,0.9626,0.963,0.9632,0.9934,0.9937,0,0,0,0,0,0,0.9379,0.9392,0.953,0.9535,0.9427,0.948,0.9488,0.9524,0.956,0.9562,0.9517,0.9511,0.9589,0.9598,0.9608,0.9745,0.9627,0.9633,0.9637,0.993,0.9934,0.9939,0,0,0,0,0,0,0.9375,0.9392,0.9527,0.9462,0.9478,0.9487,0.9528,0.9527,0.9551,0.9567,0.9568,0.9541,0.9586,0.9599,0.9688,0.9747,0.9636,0.9642,0.9925,0.9931,0.9937,1.0019,0,0,0,0,0,0,0.937,0.9391,0.9434,0.9464,0.9482,0.9606,0.9531,0.9531,0.9562,0.9555,0.9589,0.9591,0.9584,0.9679,0.9695,0.9754,0.9647,0.9919,0.9928,0.9935,1.0011,1.0027,1.0041,0,0,0,0,0,0.9363,0.9454,0.9437,0.9454,0.9536,0.9609,0.962,0.961,0.9567,0.9611,0.9621,0.959,0.9738,0.9688,0.9706,0.9768,0.9916,0.9925,0.9934,1.0004,1.0024,1.0041,0,0,0,0,0,0,0.9432,0.9458,0.9438,0.9542,0.9574,0.9599,0.9654,0.9631,0.9676,0.9668,0.9654,0.9662,0.9756,0.9771,0.9715,0.9881,0.982,0.9833,0.9867,0.9886,0.9901,0.9895,0.9652,0,0,0,0,0,0.9459,0.9515,0.9535,0.9625,0.9642,0.9646,0.9677,0.9667,0.9699,0.9713,0.9729,0.9763,0.9816,0.9852,0.9902,1.0013,1.002,1.0064,1.0079,1.0091,1.0103,1.0163,1.0183,0.9969,0.9969,0.9969,0,0,0.9515,0.9537,0.9573,0.9639,0.9663,0.9722,0.9657,0.9723,0.9767,0.9723,0.9808,0.9822,0.9858,0.9958,1.0003,0.9973,1.0163,1.0103,1.0113,1.0118,1.0174,1.0194,1.0212,0.9975,0.9974,0.9973,0,0,0.9648,0.967,0.9747,0.9772,0.9809,0.9811,0.9829,0.9859,0.9866,0.9952,0.992,0.9972,1.0065,1.0092,1.0118,1.0263,1.0236,1.028,1.0358,1.0416,1.0433,1.0448,1.0499,1.0518,1.0291,1.0291,1.0291,0,0.9714,0.9802,0.9789,0.9858,0.9888,0.9851,0.9928,0.9953,1.0005,1.0027,0.9992,1.0109,1.013,1.0237,1.0272,1.0295,1.0315,1.0275,1.0431,1.0446,1.046,1.0509,1.0528,1.0296,1.0296,1.0295,1.0295,0,0.988,0.9942,1.0,1.005,1.0087,1.016,1.0159,1.0198,1.0185,1.0191,1.0278,1.0303,1.0358,1.0383,1.037,1.0488,1.0468,1.0433,1.0372,1.0486,1.0531,1.055,1.0304,1.0302,1.03,1.0299,0,0,1.0058,1.0101,1.0122,1.0145,1.0183,1.0231,1.0302,1.0356,1.0389,1.0427,1.0486,1.0566,1.0534,1.0564,1.0554,1.0606,1.0719,1.0565,1.0565,1.0592,1.085,1.0876,1.0898,1.0702,1.0705,1.0708,1.0847,0,1.0192,1.0316,1.0308,1.0425,1.0482,1.0448,1.051,1.054,1.0548,1.0598,1.0606,1.0663,1.0617,1.0634,1.0684,1.0695,1.0771,1.0685,1.0757,1.076,1.0748,1.0922,1.0949,1.1079,1.0865,1.0868,1.087,0,1.0365,1.0409,1.0531,1.0561,1.0585,1.0641,1.069,1.0738,1.0772,1.0774,1.0808,1.079,1.0862,1.08,1.09,1.0842,1.0871,1.0881,1.0886,1.0892,1.0821,1.0932,1.112,1.1139,1.0898,1.0896,1.0894,0,1.0482,1.0571,1.0656,1.0676,1.0714,1.0754,1.0772,1.0802,1.0835,1.0878,1.0899,1.095,1.0978,1.1018,1.1015,1.097,1.1116,1.1053,1.112,1.112,1.1152,1.115,1.1347,1.1172,1.1172,1.1171,1.1171,0,1.0633,1.0709,1.0709,1.0761,1.0846,1.0836,1.092,1.0933,1.0961,1.1015,1.0989,1.1041,1.1034,1.1086,1.1084,1.1167,1.118,1.1183,1.1182,1.1185,1.1185,1.1204,1.1195,1.1176,1.1175,1.1174,1.1173,0,1.0777,1.078,1.087,1.0898,1.0907,1.0968,1.0993,1.1042,1.1048,1.1118,1.1133,1.1143,1.1203,1.1204,1.1272,1.1271,1.1372,1.1361,1.1361,1.1358,1.1425,1.1418,1.164,1.1669,1.1476,1.1478,1.1479,0,1.0872,1.093,1.0965,1.1,1.102,1.1076,1.111,1.1103,1.1139,1.1183,1.1227,1.1285,1.133,1.1428,1.1441,1.1494,1.1483,1.1557,1.149,1.1492,1.1483,1.148,1.1485,1.157,1.1572,1.1574,1.1575,0,1.1041,1.104,1.109,1.1141,1.1182,1.1221,1.1258,1.1288,1.1285,1.1327,1.1388,1.1424,1.1494,1.1552,1.1603,1.1621,1.1598,1.1596,1.1614,1.1618,1.1616,1.1618,1.1396,1.1591,1.1589,1.1588,1.1587,1.1587,1.1164,1.1214,1.1246,1.1303,1.133,1.1365,1.1413,1.1425,1.1476,1.1533,1.1526,1.1594,1.1627,1.1694,1.1716,1.177,1.1744,1.177,1.1777,1.1783,1.179,1.1608,1.1779,1.1779,1.1778,1.1778,1.1777,0,1.1331,1.1351,1.1403,1.1455,1.1499,1.1475,1.1514,1.1553,1.1613,1.1646,1.1692,1.1763,1.1819,1.1837,1.1891,1.193,1.1921,1.1945,1.1941,1.1946,1.181,1.1789,1.1951,1.1951,1.1951,1.1951,1.1951,1.1951,1.1423,1.1506,1.151,1.1606,1.1626,1.1692,1.1717,1.1749,1.1776,1.1856,1.1902,1.1914,1.1941,1.1997,1.2048,1.2052,1.2073,1.2101,1.21,1.1973,1.1955,1.1939,1.1919,1.2105,1.2106,1.2231,1.2232,1.2233]},{"header":{"parameterUnit":"m.s-1","parameterCategory":1,"la1":30.2991,"la2":30.254,"lo1":-89.0895,"lo2":-89.0444,"dy":0.0017,"dx":0.0017,"nx":28,"ny":28,"refTime":"2026-02-08T03:00:00:Z","depth":0,"parameterNumber":3,"parameterNumberName":"V-component_of_WINDS"},"data":[0,0,0,0,0,0,0,0,0,0,0,0,0,0,0,0,0,0,0,0,0,0,0,0,0,0,0,0,0,0,0,0,0,0,0,0,0,0,0,0,0,0,0,0,0,0,0,0,0,0,0,0,0,0,0,0,0,0,0.8459,0.8457,0,0.83,0.8298,0.8296,0.8145,0.8143,0.8141,0.8139,0.7973,0.797,0.7968,0,0,0,0,0,0,0,0,0,0,0,0,0,0.8628,0.8626,0.8459,0.8457,0.8455,0.83,0.8298,0.8296,0.8145,0.8143,0.814,0.8138,0.7974,0.7971,0.7968,0,0,0,0,0,0,0,0,0,0,0,0,0,0.8521,0.8625,0.846,0.8361,0.8351,0.8301,0.8298,0.8295,0.8145,0.8143,0.814,0.8137,0.7975,0.7971,0.7967,0.8,0,0,0.7955,0.7953,0,0,0,0,0,0,0,0,0.8527,0.8515,0.8378,0.8368,0.8356,0.8239,0.8297,0.8196,0.8146,0.8223,0.8139,0.8136,0.8064,0.8052,0.8029,0.7992,0.7985,0.7955,0.7952,0.7951,0.7949,0,0,0,0,0,0,0,0.8535,0.8521,0.8396,0.8376,0.8363,0.8324,0.8305,0.8277,0.8161,0.8216,0.8205,0.8188,0.8057,0.8033,0.8024,0.7983,0.7955,0.7951,0.7949,0.7947,0.7962,0.7965,0,0,0,0,0,0,0.8558,0.8528,0.8401,0.8391,0.8437,0.8323,0.8302,0.828,0.8161,0.8141,0.8191,0.8182,0.8041,0.8028,0.8017,0.8046,0.7951,0.7947,0.7945,0.7959,0.7963,0.7966,0,0,0,0,0,0,0.8562,0.8548,0.8407,0.8456,0.8436,0.8323,0.8299,0.8278,0.8253,0.8142,0.8121,0.8188,0.8038,0.8023,0.8005,0.8038,0.7945,0.7942,0.7956,0.796,0.7964,0.8105,0,0,0,0,0,0,0.8567,0.855,0.8563,0.8458,0.8434,0.84,0.8301,0.8277,0.8247,0.8234,0.8133,0.8114,0.8035,0.8012,0.8001,0.8031,0.7938,0.7953,0.7958,0.7963,0.8097,0.8114,0.8128,0,0,0,0,0,0.8574,0.8609,0.8564,0.855,0.8447,0.8402,0.8388,0.8297,0.8251,0.8261,0.8189,0.8117,0.8037,0.8011,0.7998,0.8027,0.795,0.7956,0.7962,0.809,0.811,0.8127,0,0,0,0,0,0,0.872,0.8593,0.8543,0.8545,0.8486,0.8377,0.8388,0.8322,0.8274,0.8263,0.8152,0.813,0.8125,0.8074,0.8048,0.8051,0.7983,0.7987,0.8085,0.8103,0.8118,0.813,0.7935,0,0,0,0,0,0.8753,0.8728,0.8618,0.863,0.8603,0.8501,0.8478,0.8413,0.8347,0.8321,0.8248,0.8185,0.8145,0.8121,0.8079,0.8089,0.8063,0.8102,0.8118,0.8131,0.8135,0.8134,0.815,0.7986,0.7986,0.7986,0,0,0.882,0.8747,0.8738,0.8658,0.8604,0.8579,0.8481,0.8459,0.8439,0.8317,0.8295,0.824,0.8162,0.8158,0.8153,0.8116,0.8175,0.8139,0.815,0.8147,0.8142,0.8158,0.8172,0.799,0.799,0.7989,0,0,0.8928,0.8872,0.8875,0.8823,0.8744,0.8675,0.8676,0.8577,0.8535,0.8512,0.8419,0.8393,0.8327,0.8275,0.824,0.8328,0.8258,0.8317,0.8397,0.8397,0.841,0.8421,0.845,0.8462,0.8322,0.8322,0.8322,0,0.9021,0.8981,0.8885,0.8868,0.8835,0.8724,0.8725,0.8679,0.8589,0.8568,0.8528,0.8442,0.8382,0.8363,0.8384,0.836,0.8356,0.8327,0.8417,0.8426,0.8435,0.8462,0.8473,0.833,0.8329,0.8328,0.8327,0,0.9098,0.9072,0.9084,0.9,0.8968,0.8961,0.8862,0.884,0.8778,0.8713,0.869,0.8614,0.8553,0.8544,0.8483,0.8516,0.8495,0.8438,0.8366,0.846,0.8483,0.8492,0.834,0.8338,0.8335,0.8334,0,0,0.9295,0.9157,0.9163,0.9123,0.9026,0.9003,0.899,0.8931,0.8914,0.8855,0.884,0.8786,0.8732,0.8692,0.8624,0.8625,0.8696,0.8566,0.8563,0.8592,0.8725,0.8768,0.8782,0.865,0.8652,0.8653,0.8731,0,0.9386,0.9357,0.9269,0.9265,0.9238,0.9132,0.9119,0.9058,0.8997,0.8964,0.8895,0.8858,0.8791,0.8766,0.8762,0.8689,0.8721,0.8682,0.8633,0.8632,0.8654,0.8794,0.884,0.8917,0.874,0.8741,0.8742,0,0.9489,0.9437,0.9432,0.9334,0.9319,0.9311,0.9248,0.9219,0.9146,0.9101,0.9056,0.8981,0.8958,0.8894,0.886,0.8835,0.881,0.8771,0.8771,0.8762,0.8692,0.8787,0.894,0.8951,0.8756,0.8755,0.8754,0,0.963,0.956,0.9546,0.9516,0.9402,0.9398,0.935,0.9274,0.9244,0.9189,0.9168,0.9111,0.908,0.9037,0.8947,0.8908,0.8923,0.8851,0.8883,0.8886,0.889,0.8891,0.904,0.8877,0.8877,0.8876,0.8876,0,0.9741,0.9741,0.9608,0.96,0.9596,0.9495,0.9493,0.9435,0.9369,0.9346,0.925,0.923,0.9113,0.908,0.9009,0.8991,0.8978,0.8939,0.892,0.8947,0.8952,0.8928,0.892,0.8879,0.8879,0.8878,0.8878,0,0.9898,0.981,0.9788,0.9682,0.9655,0.9657,0.9565,0.9552,0.9485,0.9457,0.9445,0.9339,0.9294,0.9201,0.913,0.9082,0.908,0.9047,0.9106,0.9093,0.913,0.9128,0.9268,0.928,0.9112,0.9113,0.9115,0,0.9974,0.9971,0.9865,0.9843,0.98,0.9766,0.9734,0.9633,0.9604,0.952,0.9517,0.9464,0.9417,0.935,0.9266,0.9211,0.9175,0.9227,0.9166,0.9192,0.9173,0.9174,0.9172,0.9241,0.9244,0.9245,0.9247,0,1.0116,1.0072,1.0031,0.9974,0.9939,0.989,0.9834,0.9822,0.9707,0.9679,0.9632,0.9596,0.9523,0.9472,0.9404,0.9352,0.928,0.9267,0.9271,0.9298,0.9331,0.9312,0.9141,0.9264,0.9263,0.9261,0.926,0.926,1.0233,1.0226,1.0149,1.0106,1.0054,1.0004,0.9986,0.9917,0.9877,0.9811,0.9753,0.9711,0.9636,0.9537,0.949,0.9455,0.9419,0.9426,0.9427,0.943,0.9441,0.9338,0.9442,0.9441,0.9441,0.944,0.944,0,1.037,1.0315,1.0277,1.0202,1.0168,1.0104,1.0039,1.0014,0.9979,0.9915,0.987,0.9816,0.9765,0.9677,0.9618,0.9606,0.9571,0.9594,0.9593,0.9582,0.9477,0.9478,0.9623,0.9623,0.9623,0.9623,0.9623,0.9623,1.0436,1.0419,1.0366,1.0321,1.0266,1.0225,1.0193,1.0146,1.0094,1.0038,0.9996,0.9939,0.9864,0.9799,0.9749,0.9724,0.9706,0.9739,0.9704,0.9607,0.959,0.9573,0.9574,0.9737,0.9737,0.9812,0.9812,0.9813]}]]